Theta_e
315 317 319 319 319 317 319 322 322 320 319 319 320 320 319 313 313 315 314 313 312 310 309 309 313 314 315 316 317 317 316 316 313 313 315 313 314 312 309 309 310 309 309 309
316 317 317 316 316 316 318 319 320 320 315 315 318 319 318 315 313 315 315 313 312 309 309 308 310 312 314 314 315 316 314 313 312 312 312 312 311 309 308 309 309 309 309 308
317 316 316 315 316 317 317 318 319 320 318 315 315 317 317 317 313 313 314 314 311 310 309 308 309 310 312 312 313 313 312 311 311 311 310 310 308 308 308 308 308 308 308 308
316 314 314 315 316 316 318 315 315 318 319 322 317 326 324 318 315 313 312 312 311 310 309 308 308 308 310 311 311 311 311 310 310 310 311 310 311 308 307 307 307 307 307 307
315 314 315 316 316 315 316 315 316 317 319 319 318 320 320 319 318 314 312 312 311 310 308 306 306 308 308 309 310 309 309 309 308 308 308 307 307 307 307 306 306 306 306 306
314 310 314 315 315 314 314 315 315 316 317 323 320 319 321 319 318 317 314 312 311 310 307 305 305 307 307 307 308 307 307 307 306 306 306 306 306 306 306 306 305 305 305 304
313 313 312 311 314 314 314 314 320 321 321 319 316 320 320 319 316 316 316 312 311 309 306 303 303 306 306 305 306 306 306 305 305 306 306 305 305 305 304 304 304 304 303 303
313 314 313 312 314 314 314 314 318 320 321 319 315 318 319 314 309 311 309 313 310 307 305 302 301 303 304 304 305 305 305 304 304 305 305 304 304 304 303 303 302 302 302 301
312 313 313 313 313 314 314 315 314 316 316 317 317 316 314 309 307 308 309 311 309 306 303 301 300 302 302 303 303 304 304 304 304 304 304 303 302 302 302 301 301 301 298 293
311 312 313 312 311 313 314 314 314 316 319 319 317 317 318 314 311 308 308 309 307 304 301 298 298 301 303 302 303 303 303 303 303 304 302 301 300 300 301 300 297 292 291 290
310 311 311 311 312 314 313 315 314 315 315 316 317 317 313 313 313 309 308 306 305 301 299 296 299 301 302 302 300 301 302 302 302 300 299 299 299 298 295 292 291 290 290 289
309 310 313 312 311 311 314 314 315 317 316 316 316 317 311 310 308 309 307 304 303 301 298 297 300 301 300 300 299 299 301 300 298 298 298 297 294 292 290 290 290 289 289 289
309 313 314 313 312 310 311 313 315 316 315 316 318 316 307 307 306 306 307 304 302 299 297 295 294 297 298 299 299 299 299 297 296 297 294 291 290 290 289 289 289 289 288 289
308 310 311 312 311 312 312 312 314 315 316 317 316 316 315 310 308 306 305 303 301 298 297 294 293 296 298 298 298 297 296 294 294 293 290 289 289 289 288 288 288 288 288 288
309 312 310 310 311 311 311 313 314 315 316 317 317 316 315 316 315 308 305 303 300 298 296 294 293 295 295 295 295 295 294 294 292 290 288 288 288 288 288 288 288 288 287 287
308 311 310 310 310 311 310 310 312 314 315 316 316 317 316 312 312 309 305 302 300 298 296 294 294 294 295 296 296 295 294 292 290 288 288 288 288 287 287 287 287 287 287 286
308 310 310 312 310 311 311 309 310 311 313 313 315 315 315 314 308 308 306 302 300 299 297 295 295 296 297 298 296 295 293 290 288 288 287 287 287 287 287 287 287 286 286 286
305 308 310 312 310 312 310 309 309 309 309 311 311 312 312 313 311 308 307 306 303 300 299 297 296 296 297 297 295 293 291 289 288 287 287 287 287 287 286 286 286 286 285 285
303 304 310 312 314 312 310 309 309 309 309 309 309 310 310 310 307 307 307 307 308 307 302 298 297 298 297 296 295 293 290 288 288 287 287 287 287 286 286 286 286 285 285 285
303 303 308 312 312 313 312 310 308 308 310 309 309 309 309 309 308 310 309 307 308 307 302 299 298 296 297 296 294 293 290 288 288 288 287 287 286 286 286 285 285 285 284 284
305 305 307 311 312 311 309 308 307 310 311 309 309 309 309 309 309 309 308 308 307 304 301 299 298 298 298 296 295 293 290 289 288 287 287 286 286 285 285 285 285 284 284 283
305 308 309 310 312 311 309 309 309 309 309 309 308 308 309 309 308 308 307 306 303 302 299 298 296 295 297 298 296 293 291 289 288 287 286 286 285 285 285 285 284 284 283 283
303 303 305 309 310 303 304 308 308 308 308 308 307 307 307 307 307 306 304 304 303 300 298 296 295 295 295 297 296 295 291 289 288 287 286 285 285 285 285 284 284 283 283 282
302 299 302 303 304 305 302 303 303 306 307 305 306 306 306 305 305 304 302 302 299 298 296 295 293 294 297 298 296 294 292 289 287 287 286 285 285 285 284 284 283 283 282 282
300 300 301 301 300 300 302 303 302 301 301 301 303 305 306 302 302 302 301 300 298 296 294 294 294 295 298 297 294 292 290 289 287 286 286 285 285 284 284 283 283 283 282 282
296 298 300 302 303 303 304 304 305 302 300 301 301 301 302 302 301 300 300 300 296 294 293 291 292 293 296 296 294 293 290 287 287 286 285 285 284 284 283 283 283 283 282 281
Wind_Speed
11 6 7 9 7 2 4 8 7 10 3 9 18 17 16 13 13 15 14 12 10 9 6 4 6 8 9 9 10 10 9 9 5 2 3 4 3 4 3 6 8 7 8 8
6 11 8 3 4 3 3 4 6 3 4 3 10 19 18 15 18 18 18 17 14 11 10 8 7 9 10 11 11 11 10 9 8 5 8 5 4 3 4 7 6 6 6 7
11 3 11 8 7 8 6 6 5 6 9 3 5 12 19 16 20 18 17 16 16 16 15 12 10 10 11 12 12 11 10 8 8 6 6 5 4 3 4 3 3 3 5 6
12 6 6 10 11 10 8 3 7 6 7 4 11 6 14 22 19 20 22 22 22 21 17 15 14 12 13 13 12 11 10 9 9 10 8 6 4 5 5 4 2 3 4 5
4 10 11 14 11 12 6 3 4 6 8 8 8 6 6 10 20 20 27 28 26 24 21 18 16 15 14 13 14 12 11 10 10 9 9 8 7 7 5 4 2 1 1 3
10 1 12 13 9 10 3 2 2 4 6 6 15 9 7 8 19 19 26 30 28 25 22 19 18 17 15 13 13 13 12 10 10 10 9 9 9 8 7 6 4 3 2 3
14 8 3 5 10 8 9 6 2 4 5 6 2 11 15 8 10 13 19 28 27 25 23 21 19 18 16 16 14 14 13 11 11 10 9 9 9 9 8 7 6 4 4 5
13 10 16 12 15 8 18 15 5 5 3 6 3 8 5 3 5 3 5 24 26 24 21 19 18 17 17 17 16 15 14 13 11 10 9 9 9 10 9 9 8 8 9 10
14 14 8 11 12 14 13 18 16 13 7 5 9 12 10 5 2 5 7 20 25 24 21 19 18 21 18 17 17 17 16 14 13 11 11 11 11 11 12 13 13 12 11 11
6 9 10 10 2 13 9 9 12 8 4 7 8 12 10 7 10 9 13 20 23 23 22 20 21 21 20 18 18 18 17 15 14 13 13 15 15 15 14 13 13 12 11 10
8 7 3 3 13 15 9 11 12 9 13 4 5 4 3 5 2 13 16 20 23 24 23 22 23 22 21 20 20 20 18 17 16 17 18 18 17 15 15 13 13 12 11 9
14 5 11 10 1 9 13 22 21 10 7 13 12 19 6 3 2 5 13 18 21 22 22 22 24 25 23 22 22 21 20 19 19 20 19 18 17 16 14 14 13 11 10 8
12 6 7 5 6 7 8 15 20 20 14 16 9 7 3 4 7 8 12 18 22 23 22 21 23 25 25 25 24 23 23 23 24 22 20 19 18 16 15 14 13 11 9 8
2 12 14 18 15 10 10 17 19 18 12 23 22 23 12 8 7 10 15 19 23 25 26 24 24 25 26 26 27 26 26 26 24 23 22 20 19 17 16 14 13 11 10 8
7 7 17 23 19 15 12 17 21 22 29 18 33 24 22 21 16 18 18 19 23 27 29 28 28 29 29 29 29 29 29 27 25 24 23 21 19 18 16 15 13 11 10 9
7 10 11 19 20 20 8 11 15 25 32 25 34 27 19 10 10 16 22 25 28 30 31 32 32 33 34 34 33 33 31 29 28 26 24 22 21 19 17 15 14 12 10 9
5 7 9 21 15 14 13 23 28 20 23 24 24 36 11 15 11 18 25 28 35 38 38 40 41 40 39 39 37 36 34 32 30 28 25 23 22 19 18 16 14 13 11 9
6 6 7 10 8 19 18 23 21 29 29 25 28 29 17 21 26 31 32 36 36 36 40 43 44 42 41 40 39 37 36 34 32 29 27 25 22 21 19 17 16 14 12 10
19 10 8 10 11 11 13 21 21 20 31 25 30 34 31 32 10 27 37 39 39 39 40 43 43 43 43 44 42 41 38 35 34 31 28 26 24 22 21 19 17 15 13 12
19 20 14 9 11 15 20 15 15 4 18 27 29 30 27 22 11 24 31 40 42 43 42 44 43 45 46 46 47 44 41 39 36 32 29 27 25 23 21 19 18 16 15 13
7 12 24 20 15 9 23 4 18 11 15 7 31 39 32 19 35 51 18 31 40 46 44 42 45 49 50 49 49 46 43 40 35 32 30 28 26 24 22 20 18 17 15 14
11 6 14 14 17 24 26 15 19 24 13 30 33 25 21 37 41 35 32 23 35 43 46 46 48 51 51 51 50 48 44 39 36 33 31 28 26 25 23 21 20 19 17 15
19 17 9 5 5 16 27 23 34 33 23 26 22 22 17 26 32 33 27 29 36 42 45 47 50 52 52 52 50 48 45 42 38 34 31 29 27 26 24 23 21 20 18 17
14 8 9 12 15 17 20 28 31 31 40 31 23 20 21 24 27 34 28 30 37 42 45 49 50 53 54 52 51 48 46 41 38 34 31 29 28 27 25 24 22 21 20 19
10 5 12 18 22 22 31 25 29 34 31 31 29 29 30 25 28 31 32 34 39 42 44 48 52 53 54 55 54 50 44 41 38 34 32 30 29 28 26 24 22 22 21 19
15 16 11 13 13 15 22 23 23 34 35 38 37 32 24 23 25 28 33 36 40 42 43 45 49 52 53 54 53 49 45 42 38 35 33 31 30 28 27 25 24 23 22 21
Wind_Direction
185 205 201 194 210 30 302 212 194 225 230 245 232 240 220 199 213 208 208 202 204 174 174 172 184 179 179 193 200 211 216 225 224 197 130 138 142 138 79 70 77 68 51 47
176 226 203 196 197 221 214 212 233 193 135 209 258 250 247 201 223 218 211 205 205 189 182 187 188 182 189 195 202 210 217 218 215 197 177 190 207 143 96 91 79 61 53 35
209 96 208 203 199 211 224 240 238 253 181 241 307 262 242 226 226 223 221 212 207 202 192 189 194 202 201 201 200 202 205 208 199 188 181 181 186 139 134 113 85 66 34 28
235 161 203 204 220 215 232 208 257 239 204 244 180 285 225 216 219 217 214 209 209 204 200 199 192 209 216 211 209 206 206 203 196 182 163 172 172 203 177 147 126 66 40 42
181 199 188 208 216 206 243 107 202 204 221 281 215 262 256 216 213 217 215 209 208 207 197 205 194 208 222 218 212 206 202 202 201 200 199 195 193 186 176 176 150 86 53 64
237 22 233 226 215 205 125 172 182 255 256 256 235 217 248 196 224 227 212 212 206 201 195 198 205 210 219 216 206 200 199 198 203 200 190 187 185 185 189 190 174 159 111 94
217 211 203 231 197 203 205 186 229 221 206 248 22 219 253 237 218 232 215 205 202 197 193 190 200 202 209 210 202 198 198 195 197 188 187 191 192 185 189 188 181 159 135 107
213 218 200 185 216 196 205 205 204 237 236 307 101 247 255 298 354 169 272 195 190 192 195 190 190 195 205 207 202 198 198 195 194 193 194 196 194 190 187 181 164 147 131 119
210 230 166 186 200 212 197 220 232 283 275 274 247 247 263 201 219 218 185 175 183 190 193 190 187 199 203 204 200 199 200 196 196 196 195 198 191 180 166 155 149 141 131 120
265 266 175 184 224 232 261 212 210 225 244 246 253 263 260 236 223 198 187 188 187 188 190 190 194 200 204 207 206 203 199 198 195 197 191 180 169 162 159 153 147 140 132 123
263 249 103 146 209 207 196 221 218 229 230 254 289 263 34 9 326 202 200 197 194 191 191 191 196 202 206 206 202 201 198 196 190 180 175 170 169 165 159 155 150 144 137 131
212 276 243 218 317 250 242 220 215 220 214 233 259 265 208 133 122 195 203 200 196 195 193 196 199 202 203 201 202 199 196 191 182 176 173 173 172 165 163 160 155 151 147 142
186 226 237 233 238 215 236 233 235 231 253 246 225 249 53 187 212 212 197 191 191 192 192 191 196 199 199 200 199 196 191 184 180 178 178 176 174 171 169 166 163 160 157 153
257 234 224 230 230 192 210 218 225 236 232 242 242 248 238 213 220 197 192 193 193 192 193 194 196 199 200 199 196 193 187 185 182 181 180 180 180 176 175 174 171 170 165 163
228 247 238 249 257 270 269 223 216 217 232 223 246 244 244 253 246 212 195 193 194 196 196 196 196 197 197 195 193 190 189 187 186 185 184 183 184 183 182 181 178 176 174 174
226 256 257 266 254 246 243 252 241 226 234 238 251 260 248 272 289 192 195 195 200 203 201 198 198 198 199 197 195 192 190 190 189 188 188 188 188 188 188 186 184 183 182 184
201 216 219 249 238 247 241 229 231 244 237 239 248 246 262 247 227 204 207 203 205 206 201 201 202 203 201 199 196 193 192 191 191 191 191 191 192 193 192 191 190 191 193 196
277 226 227 249 237 234 237 242 233 239 243 241 249 257 254 250 245 238 228 221 219 213 210 206 203 204 202 199 195 194 194 194 193 194 194 195 195 196 196 196 197 199 203 209
214 240 239 240 238 266 257 233 221 228 249 241 243 250 244 245 265 263 235 232 239 237 227 212 209 205 200 198 195 195 195 195 196 197 197 197 199 199 199 200 202 205 212 218
230 210 234 211 236 236 244 244 208 176 264 237 236 245 239 220 231 251 241 235 233 231 222 213 207 202 201 198 197 196 196 197 198 198 198 199 201 201 202 205 208 212 218 226
219 219 222 227 232 237 253 190 155 180 242 302 227 242 238 215 221 240 251 237 230 220 211 209 206 203 201 198 197 197 198 200 199 200 200 201 202 203 206 209 213 217 223 230
237 248 222 233 237 238 242 191 195 223 225 249 263 260 249 229 235 242 250 240 214 209 204 205 201 200 201 200 198 198 199 199 200 201 202 202 204 207 210 213 217 221 226 232
247 237 264 244 251 320 326 246 231 239 257 252 252 254 258 244 241 234 238 222 212 207 205 202 200 198 200 200 200 200 200 200 200 201 202 204 206 210 213 216 219 223 228 234
240 217 244 254 244 241 282 294 280 265 250 256 251 253 263 257 243 234 226 211 204 203 203 201 197 199 200 199 201 204 202 200 201 202 202 205 209 212 215 219 221 227 233 238
265 242 252 257 264 280 278 276 285 275 285 274 265 257 256 254 243 232 218 208 205 204 202 201 201 201 201 198 200 202 201 202 200 201 205 207 211 214 218 222 228 234 239 244
242 248 245 255 265 240 261 268 271 302 306 306 278 267 257 248 238 220 213 209 205 201 201 200 200 201 201 199 200 201 201 202 202 202 205 210 214 216 220 224 231 237 243 248